This demonstration page uses our WeatherBlox Daily Observations layout. Learn more.

Left ArrowRight Arrow

Hourly Observations for August 19, 2022

Temp ( °F °C ) Dew Point ( °F °C ) Humidity (%) Winds ( mph kmh ) Pressure ( in mb ) Visibility ( mi km ) Precip ( " mm )
12:54 am 00:54 Mostly Clear 69 20.6 61 16.1 75 75 Calm 29.86 1011 10 16 0.00 0.00
1:54 am 01:54 Clear 69 20.6 61 16.1 75 75 Calm 29.86 1011 10 16 0.00 0.00
2:54 am 02:54 Clear 66 18.9 60 15.6 81 81 Calm 29.86 1011 10 16 0.00 0.00
3:54 am 03:54 Clear 63 17.2 59 15 87 87 Calm 29.85 1011 10 16 0.00 0.00
4:54 am 04:54 Clear 61 16.1 58 14.4 90 90 N 5 7 29.85 1011 10 16 0.00 0.00
5:54 am 05:54 Mostly Clear 63 17.2 60 15.6 90 90 Calm 29.85 1011 10 16 0.00 0.00
6:54 am 06:54 Sunny 62 16.7 59 15 90 90 N 6 9 29.86 1011 7 11 0.00 0.00
7:54 am 07:54 Sunny 66 18.9 61 16.1 84 84 N 5 7 29.86 1011 10 16 0.00 0.00
8:54 am 08:54 Sunny 73 22.8 62 16.7 68 68 N 5 7 29.88 1012 10 16 0.00 0.00
9:54 am 09:54 Partly Cloudy 78 25.6 63 17.2 60 60 NW 5 7 29.88 1012 10 16 0.00 0.00
10:54 am 10:54 Sunny 82 27.8 59 15 46 46 ENE 8 13 29.88 1012 10 16 0.00 0.00
11:54 am 11:54 Partly Cloudy 84 28.9 59 15 43 43 VRB 3 6 29.88 1012 10 16 0.00 0.00
12:54 pm 12:54 Partly Cloudy 87 30.6 59 15 39 39 S 9 15 29.86 1011 10 16 0.00 0.00
1:54 pm 13:54 Mostly Cloudy 84 28.9 59 15 43 43 W 7 11 29.85 1011 10 16 0.00 0.00
2:54 pm 14:54 Mostly Cloudy 85 29.4 60 15.6 43 43 WNW 12 19 29.83 1010 10 16 0.00 0.00
3:17 pm 15:17 Partly Cloudy with Nearby Thunderstorms 83 28.3 62 16.7 49 49 WNW 12 19 29.80 1009 10 16 0.00 0.00
3:47 pm 15:47 Mostly Cloudy with Light Rain 76 24.4 67 19.4 74 74 WSW 12 19 29.82 1010 5 8 0.05 1.27
3:54 pm 15:54 Partly Cloudy 78 25.6 67 19.4 69 69 W 13 20 29.84 1010 10 16 0.05 1.27
4:54 pm 16:54 Sunny 84 28.9 61 16.1 46 46 W 12 19 29.83 1010 10 16 0.00 0.00
5:54 pm 17:54 Sunny 85 29.4 58 14.4 40 40 NW 13 20 29.83 1010 10 16 0.00 0.00
6:54 pm 18:54 Partly Cloudy 82 27.8 57 13.9 43 43 WNW 8 13 29.84 1011 10 16 0.00 0.00
7:54 pm 19:54 Sunny 79 26.1 62 16.7 56 56 W 9 15 29.84 1011 10 16 0.00 0.00
8:54 pm 20:54 Clear 72 22.2 60 15.6 66 66 NE 5 7 29.88 1012 10 16 0.00 0.00
9:54 pm 21:54 Partly Cloudy 72 22.2 59 15 64 64 Calm 29.89 1012 10 16 0.00 0.00
10:54 pm 22:54 Clear 69 20.6 61 16.1 75 75 N 3 6 29.91 1013 10 16 0.00 0.00
11:54 pm 23:54 Mostly Clear 69 20.6 61 16.1 75 75 Calm 29.91 1013 10 16 0.00 0.00

Powered by AerisWeather